Station WASD2 - 8594900 - Washington, DC Image indicating link to RSS feed of recent meteorological observations for station WASD2


Conditions at WASD2 as of
(2:00 am EDT)
0600 GMT on 04/15/2024:
     

Click on the graph icon in the table below to see a time series plot of the last five days of that observation.

5-day plot - Wind Direction Wind Direction (WDIR): E ( 80 deg true )
5-day plot - Wind Speed Wind Speed (WSPD): 2.9 kts
5-day plot - Wind Gust Wind Gust (GST): 6.0 kts
5-day plot - Atmospheric Pressure Atmospheric Pressure (PRES):29.77 in
5-day plot - Pressure Tendency Pressure Tendency (PTDY):+0.02 in ( Rising )
5-day plot - Air Temperature Air Temperature (ATMP): 70.9 °F
5-day plot - Water Temperature Water Temperature (WTMP): 59.4 °F
5-day plot - Wind Speed at 10 Meters Wind Speed at 10 meters (WSPD10M): 3.9 kts
5-day plot - Wind Speed at 20 Meters Wind Speed at 20 meters (WSPD20M): 3.9 kts
5-day plot -  Wind Speed, Wind Gust and Atmospheric Pressure Combined plot of Wind Speed, Gust, and Air Pressure
NOS Water Level Observation Network Water Level
Previous observations
TIME
(EDT)
5-day plot - Wind Direction
WDIR
 
5-day plot - Wind Speed
WSPD
kts
5-day plot - Wind Gust
GST
kts
5-day plot - Wave Height
WVHT
ft
5-day plot - Dominant Wave Period
DPD
sec
5-day plot - Average Wave Period
APD
sec
5-day plot - Mean Wave Direction
MWD
 
5-day plot - Atmospheric Pressure
PRES
in
5-day plot - Pressure Tendency
PTDY
in
5-day plot - Air Temperature
ATMP
°F
5-day plot - Water Temperature
WTMP
°F
5-day plot - Dew Point
DEWP
°F
5-day plot - Salinity
SAL
psu
5-day plot - Visibility
VIS
nmi
5-day plot - Tide (above MLLW)
TIDE
ft
2024-04-15 01:54 amENE 1.9 9.9----29.78- 71.2 59.4----
2024-04-15 01:48 amENE 5.1 6.0----29.78- 71.4 59.4----
2024-04-15 01:42 am NE 2.9 6.0----29.78- 71.4 59.4----
2024-04-15 01:36 am NE 1.0 7.0----29.78- 70.2 59.4----
2024-04-15 01:30 am N 4.1 6.0----29.78- 69.6 59.4----
2024-04-15 01:24 amENE 1.0 1.9----29.76- 69.4 59.4----
2024-04-15 01:18 amSSE 1.9 2.9----29.76- 69.4 59.4----
2024-04-15 01:12 amSSE 1.9 1.9----29.76- 69.1 59.4----
2024-04-15 01:06 amSSE 1.9 2.9----29.76- 69.1 59.4----
2024-04-15 01:00 amSSE 2.9 2.9----29.76+0.03 68.5 59.4----
2024-04-15 12:54 amSSE 1.9 2.9----29.76- 68.0 59.4----
2024-04-15 12:48 amSSE 1.9 2.9----29.76- 67.5 59.4----
2024-04-15 12:42 am S 2.9 4.1----29.76- 67.1 59.4----
2024-04-15 12:36 am S 4.1 4.1----29.76- 67.5 59.4----
2024-04-15 12:30 am S 4.1 5.1----29.75- 68.0 59.4----
2024-04-15 12:24 amSSE 4.1 4.1----29.75- 68.7 59.5----
2024-04-15 12:18 amSSE 2.9 4.1----29.75- 68.9 59.5----
2024-04-15 12:12 am S 2.9 4.1----29.76- 69.1 59.5----
2024-04-15 12:06 am S 2.9 4.1----29.76- 69.4 59.5----
2024-04-15 12:00 am S 4.1 5.1----29.75+0.02 69.8 59.5----
2024-04-14 11:54 pmSSE 2.9 4.1----29.75- 70.3 59.5----
2024-04-14 11:48 pmSSE 2.9 2.9----29.76- 69.4 59.5----
2024-04-14 11:42 pmSSE 2.9 2.9----29.76- 69.4 59.5----
2024-04-14 11:36 pmSSE 2.9 2.9----29.75- 69.3 59.5----
2024-04-14 11:30 pmSSE 2.9 4.1----29.75- 69.1 59.5----
2024-04-14 11:24 pm S 4.1 5.1----29.75- 68.7 59.5----
2024-04-14 11:18 pm S 4.1 5.1----29.75- 69.3 59.5----
2024-04-14 11:12 pmSSE 2.9 4.1----29.75- 68.5 59.5----
2024-04-14 11:06 pm S 1.9 4.1----29.75- 68.7 59.5----
2024-04-14 11:00 pm S 4.1 5.1----29.75+0.08 68.2 59.5----
2024-04-14 10:54 pm S 4.1 6.0----29.75- 68.4 59.5----
2024-04-14 10:48 pm S 5.1 7.0----29.75- 69.3 59.5----
2024-04-14 10:42 pm S 5.1 7.0----29.75- 71.4 59.5----
2024-04-14 10:36 pm S 5.1 8.0----29.75- 72.1 59.5----
2024-04-14 10:30 pmSSW 5.1 8.0----29.75- 72.3 59.5----
2024-04-14 10:24 pmSSW 6.0 8.9----29.74- 72.5 59.5----
2024-04-14 10:18 pmSSW 6.0 8.9----29.74- 72.7 59.5----
2024-04-14 10:12 pmSSW 6.0 8.0----29.74- 72.7 59.5----
2024-04-14 10:06 pm S 7.0 8.9----29.74- 72.7 59.5----
2024-04-14 10:00 pm S 7.0 8.0----29.73+0.05 71.6 59.5----
2024-04-14 09:54 pm S 6.0 8.0----29.74- 70.7 59.5----
2024-04-14 09:48 pm S 5.1 8.0----29.74- 72.9 59.5----
2024-04-14 09:42 pm S 6.0 8.0----29.74- 73.6 59.5----
2024-04-14 09:36 pm S 6.0 8.0----29.73- 71.6 59.5----
2024-04-14 09:30 pmSSW 6.0 11.1----29.73- 75.2 59.5----
2024-04-14 09:24 pmSSW 7.0 8.9----29.73- 75.2 59.5----
2024-04-14 09:18 pmSSW 7.0 12.0----29.73- 75.9 59.7----
2024-04-14 09:12 pmSSW 6.0 11.1----29.73- 76.1 59.7----
2024-04-14 09:06 pmSSW 6.0 8.9----29.73- 76.1 59.7----
2024-04-14 09:00 pmSSW 7.0 13.0----29.73+0.04 76.5 59.7----
2024-04-14 08:54 pmSSW 7.0 11.1----29.73- 76.3 59.9----
2024-04-14 08:48 pmSSW 7.0 14.0----29.73-- 59.9----
2024-04-14 08:42 pmSSW 8.0 12.0----29.72-- 59.9----
2024-04-14 08:36 pmSSW 8.9 14.0----29.71-- 59.9----
2024-04-14 08:30 pm-------29.71- 77.7 59.9----
2024-04-14 08:24 pm-------29.70- 77.0 59.9----
2024-04-14 08:18 pmSSW 8.0 17.1------ 77.4 59.9----
2024-04-14 08:12 pmSSW 12.0 15.9------ 77.7 59.9----
2024-04-14 08:06 pmSSW 8.9 15.9------ 77.5 59.9----
2024-04-14 08:00 pmSSW 11.1 15.0----29.67-0.04 77.7 59.9----
2024-04-14 07:54 pmSSW 12.0 15.9----29.67- 77.5 59.9----
2024-04-14 07:48 pmSSW 11.1 15.9----29.67- 77.9 59.9----
2024-04-14 07:42 pmSSW 12.0 17.1----29.67- 77.9 59.9----
2024-04-14 07:36 pmSSW 12.0 18.1----29.67- 78.1 60.1----
2024-04-14 07:30 pmSSW 14.0 20.0----29.67- 78.6 60.1----
2024-04-14 07:24 pmSSW 13.0 18.1----29.67- 78.6 60.1----
2024-04-14 07:00 pmSSW 14.0 22.9----29.68-0.06- 60.1----
2024-04-14 06:54 pmSSW 13.0 18.1----29.68-- 60.1----
2024-04-14 06:48 pmSSW 14.0 19.0----29.68- 79.3 60.1----
2024-04-14 06:42 pmSSW 12.0 17.1----29.69- 79.3 60.1----
2024-04-14 06:36 pmSSW 14.0 21.0----29.69- 79.7 60.1----
2024-04-14 06:30 pmSSW 12.0 24.1----29.69- 79.3 60.1----
2024-04-14 06:24 pm S 12.0 18.1----29.69- 78.3 60.1----
2024-04-14 06:18 pmSSW 12.0 21.0----29.69- 78.6 60.1----
2024-04-14 06:12 pm S 17.1 22.0----29.69- 79.5 60.1----
2024-04-14 06:06 pmSSW 15.9 20.0----29.70- 79.3 60.1----
2024-04-14 06:00 pmSSW 12.0 19.0----29.70-0.10 79.5 60.1----
2024-04-14 05:54 pmSSW 12.0 22.0----29.70- 79.2 60.1----
2024-04-14 05:48 pmSSW 15.0 22.0----29.70-- 60.1----
2024-04-14 05:42 pm S 13.0 20.0----29.70-- 59.9----
2024-04-14 05:36 pmSSW 15.0 20.0----29.70-- 59.9----
2024-04-14 05:30 pm S 14.0 18.1----29.71-- 59.9----
2024-04-14 05:24 pm S 13.0 20.0----29.71-- 59.9----
2024-04-14 05:18 pmSSW 18.1 27.0----29.71- 79.7 59.7----
2024-04-14 05:12 pm S 13.0 19.0----29.71- 78.1 59.7----
2024-04-14 05:06 pm S 15.9 28.0----29.72- 77.4 59.7----
2024-04-14 05:00 pm S 18.1 24.1----29.71-0.13 78.3 59.9----
2024-04-14 04:54 pm S 15.9 24.1----29.72- 78.4 59.9----
2024-04-14 04:48 pm S 15.9 24.1----29.72- 78.4 59.9----
2024-04-14 04:42 pm S 15.0 21.0----29.72- 78.3 59.9----
2024-04-14 04:36 pm S 15.9 25.1----29.72- 77.4 59.9----
2024-04-14 04:30 pm S 17.1 25.1----29.72- 76.1 59.7----
2024-04-14 04:24 pm S 18.1 24.1----29.72- 77.2 59.7----
2024-04-14 04:18 pm S 14.0 20.0----29.73- 77.0 59.7----
2024-04-14 04:12 pm S 13.0 20.0----29.74- 77.4 59.7----
2024-04-14 04:06 pm S 15.9 21.0----29.75- 76.8 59.7----
2024-04-14 04:00 pm S 13.0 19.0----29.75-0.14 75.6 59.5----
2024-04-14 03:54 pm S 18.1 22.0----29.76- 76.3 59.5----
2024-04-14 03:48 pm S 17.1 22.9----29.77- 76.5 59.5----
2024-04-14 03:42 pmSSW 14.0 20.0----29.77- 76.5 59.4----
2024-04-14 03:36 pm S 13.0 19.0----29.77- 75.6 59.5----
2024-04-14 03:30 pm S 15.0 19.0----29.77- 75.7 59.5----
2024-04-14 03:24 pmSSW 17.1 22.9----29.78- 76.3 59.4----
2024-04-14 03:18 pm S 17.1 24.1----29.78- 75.2 59.4----
2024-04-14 03:12 pm S 15.0 22.0----29.79- 75.2 59.2----
2024-04-14 03:06 pm S 17.1 24.1----29.79- 74.8 59.2----
2024-04-14 03:00 pm S 15.9 21.0----29.80-0.12------
2024-04-14 02:54 pm S 13.0 20.0----29.81-------
2024-04-14 02:48 pm S 15.9 21.0----29.81- 74.1 59.2----
2024-04-14 02:42 pm S 15.0 20.0----29.81- 74.3 59.2----
2024-04-14 02:36 pm S 15.0 21.0----29.82- 73.9 59.0----
2024-04-14 02:30 pm S 19.0 22.0----29.82- 73.6 59.0----
2024-04-14 02:24 pm S 14.0 19.0----29.83- 73.9 58.8----
2024-04-14 02:18 pm S 13.0 19.0----29.83- 72.9 58.8----
2024-04-14 02:12 pm S 13.0 20.0----29.83- 73.6 58.8----
2024-04-14 02:06 pmSSW 14.0 20.0----29.84- 73.9 58.8----
2024-04-14 02:00 pmSSW 14.0 19.0----29.84-0.12 73.0 58.6----
2024-04-14 01:54 pm S 15.0 22.0----29.85- 73.0 58.6----
2024-04-14 01:48 pm S 15.0 20.0----29.85- 72.1 58.6----
2024-04-14 01:42 pm S 14.0 21.0----29.85- 72.1 58.6----
2024-04-14 01:36 pm S 15.0 20.0----29.86- 71.8 58.5----
2024-04-14 01:30 pmSSW 13.0 18.1----29.86- 71.8 58.5----
2024-04-14 01:24 pm S 17.1 22.0----29.86- 71.4 58.5----
2024-04-14 01:18 pm S 17.1 21.0----29.87- 70.7 58.5----
2024-04-14 01:12 pm S 14.0 20.0----29.88- 71.1 58.5----
2024-04-14 01:06 pm S 13.0 20.0----29.88- 70.9 58.5----
2024-04-14 01:00 pm S 13.0 20.0----29.89-0.11 70.2 58.5----
2024-04-14 12:54 pmSSW 15.9 21.0----29.89- 70.9 58.3----
2024-04-14 12:48 pm S 14.0 20.0----29.90-- 58.3----
2024-04-14 12:42 pm S 14.0 20.0----29.90-- 58.3----
2024-04-14 12:36 pm S 12.0 19.0----29.91-- 58.3----
2024-04-14 12:30 pm S 15.9 20.0----29.91-- 58.3----
2024-04-14 12:24 pm S 13.0 17.1----29.91-- 58.3----
2024-04-14 12:18 pm S 12.0 15.0----29.91- 68.7 58.3----
2024-04-14 12:12 pm S 14.0 19.0----29.92- 68.9 58.3----
2024-04-14 12:06 pm S 14.0 18.1----29.92- 68.4 58.3----
2024-04-14 12:00 pm S 13.0 20.0----29.92-0.10 67.6 58.3----
2024-04-14 11:54 am S 15.0 22.0----29.93- 68.0 58.3----
2024-04-14 11:48 am S 15.0 19.0----29.93- 68.2 58.1----
2024-04-14 11:42 amSSW 15.9 22.0----29.94- 68.4 58.1----
2024-04-14 11:36 amSSW 12.0 17.1----29.94- 68.4 58.1----
2024-04-14 11:30 amSSW 12.0 18.1----29.95-- 58.1----
2024-04-14 11:24 am S 14.0 17.1----29.95-- 58.1----
2024-04-14 11:18 am S 11.1 15.9----29.95-- 58.1----
2024-04-14 11:12 am S 12.0 15.9----29.95-- 58.1----
2024-04-14 11:06 am S 12.0 15.9----29.96-- 58.1----
2024-04-14 11:00 amSSW 12.0 19.0----29.96-0.09 65.8 57.9----
2024-04-14 10:54 am S 12.0 15.9----29.96- 65.1 57.9----
2024-04-14 10:48 am S 12.0 15.0----29.97- 64.8 57.9----
2024-04-14 10:42 am S 9.9 14.0----29.98- 63.7 57.9----
2024-04-14 10:36 am S 12.0 15.9----29.98- 63.1 57.9----
2024-04-14 10:30 am S 12.0 15.0----29.98- 63.1 57.9----
2024-04-14 10:24 am S 12.0 15.0----29.98- 62.8 57.9----
2024-04-14 10:18 am S 12.0 14.0----29.98- 62.4 57.7----
2024-04-14 10:12 am S 12.0 15.0----29.99- 62.6 57.7----
2024-04-14 10:06 am S 11.1 13.0----30.00- 62.4 57.7----
2024-04-14 10:00 am S 9.9 12.0----30.00-0.04- 57.7----
2024-04-14 09:54 am S 9.9 12.0----30.00-- 57.7----
2024-04-14 09:48 am S 8.9 12.0----30.00- 60.8 57.7----
2024-04-14 09:42 am S 8.9 11.1----30.01- 60.3 57.7----
2024-04-14 09:36 am S 8.9 12.0----30.01- 59.9 57.7----
2024-04-14 09:30 am S 7.0 9.9----30.01-- 57.7----
2024-04-14 09:24 am S 8.9 9.9----30.01-- 57.7----
2024-04-14 09:18 am S 6.0 8.0----30.01- 57.2 57.7----
2024-04-14 09:12 am S 6.0 8.0----30.02- 56.7 57.7----
2024-04-14 09:06 am S 7.0 8.0----30.02- 55.9 57.7----
2024-04-14 09:00 am S 7.0 8.0----30.02- 55.6 57.7----
2024-04-14 08:54 am S 5.1 8.0----30.03- 55.4 57.7----
2024-04-14 08:48 am-------30.03- 54.9 57.7----
2024-04-14 08:42 am-------30.03- 54.5 57.7----
2024-04-14 08:36 am-------30.04- 54.3 57.7----
2024-04-14 08:30 am S 4.1 6.0----30.04-- 57.7----
2024-04-14 08:24 amSSW 5.1 7.0----30.04-- 57.7----
2024-04-14 08:18 am S 5.1 7.0----30.04- 54.0 57.7----
2024-04-14 08:12 am S 4.1 5.1----30.04- 54.0 57.7----
2024-04-14 08:06 am S 4.1 5.1----30.04- 53.8 57.7----
2024-04-14 08:00 am S 2.9 4.1----30.04+0.03- 57.7----
2024-04-14 07:54 amSSE 4.1 4.1----30.04-- 57.7----
2024-04-14 07:48 amSSE 4.1 6.0----30.04-- 57.7----
2024-04-14 07:42 am S 5.1 6.0----30.04-- 57.7----
2024-04-14 07:36 amSSE 5.1 6.0----30.04-- 57.7----
2024-04-14 07:30 am S 5.1 6.0----30.04- 52.9 57.7----
2024-04-14 07:24 am S 4.1 5.1----30.04- 52.7 57.7----
2024-04-14 07:18 am S 4.1 5.1----30.04-------
2024-04-14 07:12 amSSW 2.9 5.1----30.04-------
2024-04-14 07:06 am S 4.1 5.1----30.04-------
2024-04-14 07:00 am S 4.1 4.1----30.03+0.02 52.3 57.7----
2024-04-14 06:54 am S 2.9 5.1----30.03- 52.5 57.7----
2024-04-14 06:48 am S 4.1 5.1----30.03-- 57.7----
2024-04-14 06:42 am S 1.9 2.9----30.03-- 57.7----
2024-04-14 06:36 amSSE 1.9 2.9----30.03-- 57.7----
2024-04-14 06:30 amSSE 2.9 2.9----30.03- 52.5 57.7----
2024-04-14 06:24 am S 2.9 2.9----30.03- 52.2 57.7----
2024-04-14 06:18 am S 1.9 4.1----30.03- 52.3 57.7----
2024-04-14 06:12 am S 4.1 4.1----30.03- 52.5 57.7----
2024-04-14 06:06 am S 2.9 4.1----30.03- 52.2 57.7----
2024-04-14 06:00 am S 4.1 5.1------ 52.2-----
2024-04-14 05:54 am S 4.1 5.1------ 52.9-----
2024-04-14 05:48 am S 4.1 5.1------ 53.1 57.7----
2024-04-14 05:42 am S 4.1 5.1------ 53.1 57.7----
2024-04-14 05:36 am S 2.9 4.1------ 52.7 57.7----
2024-04-14 05:30 am S 2.9 4.1----30.02-- 57.7----
2024-04-14 05:24 am S 2.9 4.1----30.02-- 57.7----
2024-04-14 05:18 am S 4.1 5.1----30.02- 52.9 57.7----
2024-04-14 05:12 am S 2.9 4.1----30.01- 52.7 57.7----
2024-04-14 05:06 am S 2.9 4.1----30.01- 53.1 57.7----
2024-04-14 05:00 am S 2.9 2.9----30.01+0.01 52.9 57.7----
2024-04-14 04:54 amSSW 1.9 2.9----30.01- 53.2 57.7----
2024-04-14 04:48 amSSE 1.9 4.1----30.01- 53.6 57.7----
2024-04-14 04:42 am S 2.9 4.1----30.01- 53.1 57.7----
2024-04-14 04:36 am S 1.9 2.9----30.01- 53.6 57.7----
2024-04-14 04:30 amSSE 1.9 2.9----30.01- 53.2 57.7----
2024-04-14 04:24 am SE 1.9 1.9----30.01- 53.1 57.7----
2024-04-14 04:18 am- 0.0 1.0----30.01- 53.1 57.7----
2024-04-14 04:12 am- 0.0 1.0----30.01- 53.1 57.7----
2024-04-14 04:06 amSSW 1.0 2.9----30.01- 53.2 57.7----
2024-04-14 04:00 amSSW 1.9 4.1----30.01+0.01 53.1 57.7----
2024-04-14 03:54 am SW 1.9 2.9----30.01- 53.1 57.7----
2024-04-14 03:48 am S 1.0 2.9----30.01- 52.7 57.7----
2024-04-14 03:42 am- 0.0 1.0----30.01- 52.2 57.9----
2024-04-14 03:36 am- 0.0 1.0----30.01- 52.5 57.9----
2024-04-14 03:30 am- 0.0 1.0----30.00- 53.2 57.7----
2024-04-14 03:24 am- 0.0 0.0----30.00- 52.9 57.9----
2024-04-14 03:18 am- 0.0 1.0----30.00- 53.1 57.9----
2024-04-14 03:12 amSSE 1.0 1.9----30.00- 53.2 57.9----
2024-04-14 03:06 amSSE 1.0 1.9----30.00- 52.9 57.9----
2024-04-14 03:00 am- 0.0 0.0----30.00+0.01 52.5 57.9----
2024-04-14 02:54 am- 0.0 0.0----30.00- 53.6 57.9----
2024-04-14 02:48 am- 0.0 1.0----30.00- 54.1 57.9----
2024-04-14 02:42 am S 1.0 1.0----30.00- 54.1 57.9----
2024-04-14 02:36 am SW 1.0 1.9----30.00- 55.4 57.9----
2024-04-14 02:30 am S 1.9 1.9----30.00- 55.4 57.9----
2024-04-14 02:24 am S 1.9 2.9----30.00- 55.6 57.9----
2024-04-14 02:18 am S 1.9 2.9----30.00- 55.6 57.9----
2024-04-14 02:12 am S 1.9 2.9----30.00- 54.7 57.9----
2024-04-14 02:06 am S 1.0 2.9----30.00- 54.3 57.9----
2024-04-14 02:00 amSSW 1.9 2.9----30.00+0.02 53.6 57.9----
2024-04-14 01:54 am- 0.0 1.9----30.00- 53.8 57.9----